Погода Казалы

Погода Казалы : погода сейчас, прогноз погоды и архив. Всё, что Вы хотите узнать о погоде Казалы!

Хотите узнать прогноз погоды Казалы? Тогда Вам сюда: Погода Казалы

Поиск расширенной информации на нашем сайте:

Другие новости

Новости СМИ2

Главная страница сайта

Новости сайта

02.10.2013

Напоминаем, что на нашем новом сайте вы можете получить высокодетализированные прогнозы погоды по пунктам России, СНГ и мира (включающие важные для авиации метеовеличины, такие как направление и скорость ветра, видимость, явления погоды, количество и форма облачности, нижняя и верхняя граница облачности), а также ознакомиться с разнообразными материалами по авиационной метеорологии и подборкой полезных ссылок на эту тему.

Сайт Метеоцентр.Азия посвящён разработке технологий оптимизации авиаметеорологического обслуживания, включая проектирование и перспективное создание нескольких автоматизированных авиаметеорологических систем:
- система выпуска высокодетальных прогностических карт явлений погоды для нижнего воздушного пространства по России и ближнему зарубежью;
- система верификации прогнозов TAF (выпускаемых синоптиками официальных АМСГ РФ и ближнего зарубежья) и AUTOTAF (выпускаемых сайтом Метеоцентр.Азия) - выявление ошибок, онлайн-сопоставление с фактической погодой METAR, автоматическое внесение коррективов в прогнозы при резком отклонении фактической погоды от прогноза, подсчёт оправдываемости прогнозов по элементам и в целом;
- система обработки, анализа и отображения авиаметеорологической информации для применения провайдерами метеорологической информации.


Погода Казалы - сегодня

Время (UTC), дата Ветер
(°,м/с) 
Видим.   Явления Облачность Т
(°С)
Тd
(°С)
f(%) Тe
(°С)
Pmin
(гПа)
dP
(гПа)
Po
(мм)
O2
(г/м3)
Тmin Tmax R s Состояние
почвы
21 17.01.17 тихо ()   20000 м    10/10 600 м 
[Sc]
-8.8 -10.7 86 -9  1029.9  -0.5  766  320           
00 18.01.17 070 (В) 20000 м    10/10 600 м 
[Sc]
-9 -10.6 88 -9  1029.8  -0.1  766  320           
03 18.01.17 тихо ()   20000 м    10/10 600 м 
[Sc]
-9.2 -11.2 85 -9  1030  0.2  766  320      0.0  равномерный
сухой снег
100% 
06 18.01.17 тихо ()   20000 м    10/10 600 м 
[Sc]
-8.3 -10.6 83 -8  1030.7  0.7  766  320  -10.4    0.0     
09 18.01.17 тихо ()   20000 м    10/10 600 м 
[Sc]
-6.5 -9.7 78 -7  1029.8  -0.8  766  317           
12 18.01.17 тихо ()   20000 м    9/9 600 м 
[Sc]
-6.5 -10.1 76 -7  1030.2  0.4  766  317           
15 18.01.17 тихо ()   20000 м    9/9 600 м 
[Sc]
-10.6 -13.4 80 -11  1030.7  0.4  766  322    -6.5       
18 18.01.17 070 (В) 20000 м  в посл. час снег  6/6 600 м 
[Sc]
-11.7 -13.7 85 -12  1030.6  -0.1  766  324    -6.5       
21 18.01.17 тихо ()   20000 м    ясно 
-13.9 -15.9 85 -14  1030.2  -0.6  766  326           
00 19.01.17 тихо ()   20000 м    5/0 верхняя 
[Cs]
-16.7 -18.6 85 -17  1030.4  0.2  766  330           
03 19.01.17 тихо ()   20000 м    3/0 верхняя 
[Ci fib]
-18 -20.6 80 -18  1030.5  -0.1  766  332      0.3  равномерный
сухой снег
100% 
06 19.01.17 070 (В) 20000 м    5/0 верхняя 
[Ci fib]
-14.2 -16.9 80 -14  1031.4  1.1  767  327  -18    0.3     
09 19.01.17 тихо ()   20000 м    ясно 
-7.4 -12.3 68 -7  1029.6  -1.5  766  318           
12 19.01.17 160 (Ю) 20000 м    3/0 средняя 
[Ac trans]
-7.8 -11.9 72 -8  1029.7  766  319           
15 19.01.17 тихо ()   20000 м    ясно 
-13.2 -15.2 85 -13  1029.5  -0.4  765  325    -6.2       
18 19.01.17 тихо ()   20000 м    10/10 600 м 
[Sc]
-13.5 -15.5 85 -14  1029.4  -0.1  765  326    -6.2       
21 19.01.17 тихо ()   10 км  слаб. снег  10/10 600 м 
[Sc]
-9.6 -11.7 85 -10  1028.5  -0.7  765  320           
00 20.01.17 тихо ()   10 км  слаб. снег  10/10 600 м 
[Sc]
-8.7 -10.6 86 -9  1027.9  -0.6  764  319           
03 20.01.17 тихо ()   10 км  слаб. снег  9/9 600 м 
[Sc]
-11.2 -13.2 85 -11  1027.6  -0.3  764  322      0.4  равномерный
сухой снег
100% 
06 20.01.17 тихо ()   20000 м  {снег}  9/9 600 м 
[Sc]
-8.2 -10.5 83 -8  1028.5  0.9  765  319  -14    0.4     
09 20.01.17 270 (З) 10 км  слаб. снег  10/10 600 м 
[Sc]
-6 -9.5 76 -6  1026.7  -1.7  763  315           
12 20.01.17 270 (З) 10 км  слаб. снег  10/10 600 м 
[Sc]
-6.8 -10.1 77 -6  1025.8  -0.9  763  316           
15 20.01.17 270 (З) 10 км  слаб. снег  10/10 600 м 
[Frnb|Ns]
-9 -11.5 82 -9  1025.7  -0.2  763  319    -6     
18 20.01.17 270 (З) 20000 м    ясно 
-15.2 -17.9 80 -15  1026  0.1  763  327    -6     
21 20.01.17 тихо ()   20000 м    ясно 
-20.2 -22.8 80 -20  1026.2  763  334           
Время (UTC), дата Ветер
(°,м/с) 
Видим.   Явления Облачность Т
(°С)
Тd
(°С)
f(%) Тe
(°С)
Pmin
(гПа)
dP
(гПа)
Po
(мм)
O2
(г/м3)
Тmin Tmax R s Состояние
почвы

Для получения пояснительной информации подведите курсор к названию столбца.

ПОГОДА Казалы - архив

Всё, что Вы хотите узнать о погоде Казалы - удобно и подробно!

Выберите нужную дату (начиная с 1 января 2015* года) и нажмите кнопку "Найти".
Будут отображены архивные сводки погоды по пункту Казалы, начиная с указанной даты.


Отображать данные в формате CSV (для использования в таблицах Excel)


Внимание! Наш архив погоды предназначен исключительно для личного некоммерческого использования в познавательных целях. Если Вам необходимы официальные справки о состоянии погоды (для производственных, юридических, коммерческих и т.п. целей), обращайтесь в органы Росгидромета.

*Примечание: данная дата относится к архиву по метеостанциям СССР (Россия, СНГ, Балтия).
Архив по метеостанциям Зарубежной Европы и Азии (кроме Китая) хранится 10 дней, по другим регионам земного шара (Китай, Африка, Америка, Австралия, Океания) - 1 день.

Казалы - район местоположения метеостанции


Название, широта, долгота, высота метеостанции:
Казалы (Казалинск) 45.8°ш. 62.1°д. 68 м над ур. моря [Казахстан]

Дополнительная информация

В oтличие oт бoльшинства пoгoдных сайтoв мы публикуем пoдрoбную метеoинфoрмацию в детальнoм прoфессиoнальнoм фoрмате.

Характеристики температуры и влажнoсти вoздуха измеряются на высoте 2 м в тени вдали oт зданий и деревьев.
Скoрoсть ветра измеряется на высoте 10 м (на урoвне рoста челoвека скoрoсть ветра ниже в 1.5-2 раза). Если метеoстанция нахoдится в гoрoде или в лесу, тo скoрoсть ветра занижена на 2-4 м/с пo сравнению с oткрытым местoм. Скoрoсть ветра над акватoриями крупных рек и oзёр, а также на вершинах хoлмoв на 2-5 м/с выше, чем в oбычных услoвиях.
Атмoсфернoе давление в разных тoчках местнoсти мoжет значительнo oтличаться oт давления на метеoстанции, в зависимoсти oт услoвий рельефа (при пoдъёме на 10 м давление пoнижается примернo на 1 мм рт.ст.).